CAPE
1575 1624 484 198 68 5 324 1045 1138 1236 1250 1191 1092 854 713 773 672 356 190 131 117 51 5 0 0 0 0 0 0 15 5 4
1175 922 373 373 286 176 13 24 829 1033 1096 991 835 817 957 847 453 305 254 165 100 30 2 0 0 0 0 0 0 0 4 1
1070 468 305 157 158 42 85 129 250 697 939 683 632 582 702 545 270 245 161 70 47 7 0 0 0 0 0 0 0 7 9 3
783 568 445 262 152 121 40 35 276 666 1112 897 427 746 813 316 307 180 99 35 0 0 0 0 0 0 0 0 7 19 17 6
569 496 541 258 98 131 169 32 208 851 687 693 474 751 509 382 585 219 109 0 0 0 0 0 0 0 0 5 6 21 17 6
238 193 169 139 206 28 36 29 17 164 242 190 162 303 251 294 335 180 12 0 0 0 0 16 0 0 3 0 11 25 18 4
86 168 111 122 138 115 97 28 6 6 36 57 91 167 282 251 331 266 68 107 32 0 18 3 1 1 1 4 11 28 17 5
43 8 38 39 45 61 99 39 36 23 5 31 44 169 203 261 298 278 206 209 132 40 50 12 2 1 0 2 5 10 21 13
3 14 4 15 4 3 3 4 6 15 15 49 52 162 238 309 334 397 309 264 241 147 39 17 2 0 0 0 1 6 10 24
9 5 2 28 13 11 8 6 9 23 43 52 14 170 206 271 237 232 194 239 160 82 20 14 7 0 0 0 0 1 2 6
15 7 6 19 20 19 26 8 2 1 26 57 95 195 180 217 180 220 218 139 169 117 104 69 32 2 0 0 0 0 0 0
20 12 8 3 15 15 35 19 11 15 29 84 148 108 140 162 167 207 90 73 55 101 108 47 24 0 0 0 0 0 0 0
17 12 9 2 15 22 26 20 19 38 26 57 140 68 144 183 192 261 264 128 97 213 78 54 0 0 0 0 0 0 0 0
17 7 6 4 2 4 15 16 4 1 16 58 107 137 208 258 270 266 269 247 288 237 240 81 24 6 0 0 0 0 0 0
11 14 6 6 0 3 29 19 13 7 20 25 50 84 172 224 309 280 255 340 297 327 363 294 155 60 51 90 85 54 89 0
35 30 13 4 7 7 15 14 17 7 1 17 35 25 155 154 138 153 295 250 270 327 302 293 309 212 99 40 213 204 206 98
7 22 24 13 19 6 10 7 24 35 15 29 11 2 75 75 112 93 158 331 279 394 390 383 351 260 325 221 122 170 249 165
10 9 19 26 18 7 9 1 19 18 37 30 13 24 44 125 115 101 96 180 232 287 312 394 342 327 315 358 304 172 105 71
8 5 7 18 18 18 13 10 9 11 11 2 0 1 30 112 132 157 170 170 130 183 323 359 400 336 442 422 283 282 233 138
16 0 4 9 21 14 16 12 25 14 7 0 0 0 21 70 164 148 156 115 81 170 187 183 197 295 380 425 336 224 291 259
CIN
-0 -0 -119 -192 -115 -14 -65 -5 -3 -2 -2 -2 -2 -3 -4 -1 -1 -1 -1 -31 -20 -44 -0 -0 -0 -0 -0 -0 -0 -104 -0 -0
-1 -10 -101 -54 -106 -14 -29 -87 -5 -2 -4 -5 -7 -6 -4 -3 -2 -3 -0 -3 -10 -22 -0 -0 -0 -0 -0 -0 -0 -0 -0 -0
-1 -44 -98 -98 -85 -55 -11 -5 -2 -9 -6 -14 -16 -0 -0 -0 -17 -3 -10 -13 -38 -23 -0 -0 -0 -0 -0 -0 -0 -0 -0 -0
-0 -9 -16 -79 -93 -38 -25 -45 -1 -3 -0 -0 -2 -0 -0 -7 -13 -16 -22 -21 -0 -0 -0 -0 -0 -0 -0 -0 -4 -1 -0 -0
-0 -0 -1 -28 -39 -1 -0 -1 -3 -1 -4 -0 -3 -0 -0 -6 -0 -3 -7 -0 -0 -0 -0 -0 -0 -0 -0 -0 -0 -0 -0 -0
-1 -0 -0 -19 -6 -1 -5 -21 -16 -6 -14 -22 -12 -6 -13 -1 -0 -0 -15 -0 -0 -0 -0 -0 -0 -0 -0 -0 -0 -1 -0 -0
-0 -0 -8 -4 -15 -3 -0 -28 -0 -20 -19 -30 -32 -14 -1 -0 -32 -1 -0 -0 -0 -0 -0 -0 -0 -0 -0 -0 -0 -1 -0 -0
-2 -2 -5 -13 -22 -8 -3 -1 -3 -12 -30 -30 -27 -10 -9 -0 -3 -0 -0 -0 -0 -0 -1 -24 -0 -0 -0 -0 -0 -0 -0 -0
-0 -0 -16 -0 -1 -0 -0 -29 -1 -2 -2 -3 -10 -11 -9 -1 -0 -0 -0 -0 -0 -0 -0 -17 -0 -0 -0 -0 -0 -0 -0 -0
-0 -0 -0 -0 -0 -0 -0 -13 -4 -1 -2 -4 -16 -18 -10 -6 -2 -0 -0 -0 -0 -5 -7 -16 -0 -0 -0 -0 -0 -0 -0 -0
-0 -0 -0 -1 -0 -0 -0 -0 -0 -2 -4 -5 -1 -1 -5 -6 -12 -0 -0 -0 -1 -1 -0 -0 -12 -3 -0 -0 -0 -0 -0 -0
-36 -0 -0 -2 -0 -0 -0 -0 -0 -1 -3 -4 -0 -1 -7 -8 -43 -1 -23 -34 -50 -1 -0 -11 -16 -9 -0 -0 -0 -0 -0 -0
-0 -0 -0 -0 -0 -0 -0 -0 -0 -5 -8 -17 -0 -22 -1 -9 -14 -14 -13 -17 -32 -3 -2 -7 -0 -0 -0 -0 -0 -0 -0 -0
-0 -0 -0 -0 -1 -3 -0 -0 -0 -4 -7 -28 -7 -9 -1 -6 -0 -20 -5 -1 -1 -2 -2 -12 -37 -33 -0 -0 -0 -0 -0 -0
-0 -0 -0 -0 -0 -1 -1 -2 -1 -1 -4 -42 -55 -37 -0 -5 -4 -0 -3 -0 -8 -2 -0 -0 -0 -28 -32 -4 -0 -0 -14 -0
-213 -0 -0 -0 -0 -0 -0 -0 -0 -0 -0 -2 -64 -86 -6 -6 -104 -64 -2 -5 -3 -1 -0 -2 -1 -0 -31 -53 -15 -4 -18 -4
-0 -0 -0 -0 -0 -0 -0 -0 -0 -0 -0 -0 -5 -36 -13 -20 -32 -31 -35 -1 -3 -4 -1 -0 -0 -14 -0 -2 -33 -21 -19 -9
-356 -0 -0 -0 -0 -0 -0 -1 -0 -2 -0 -1 -6 -3 -7 -2 -2 -34 -67 -38 -11 -15 -7 -0 -10 -5 -9 -1 -0 -0 -1 -7
-393 -0 -0 -0 -1 -0 -0 -0 -0 -0 -0 -1 -4 -7 -2 -0 -1 -1 -19 -30 -27 -5 -15 -15 -10 -13 -0 -1 -1 -1 -0 -0
-391 -0 -171 -0 -0 -0 -0 -1 -0 -0 -0 -0 -0 -0 -2 -0 -0 -0 -6 -22 -60 -2 -24 -16 -16 -16 -5 -0 -0 -3 -0 -0
Wind_Speed
5 6 7 13 9 19 7 21 24 24 24 24 25 21 21 21 19 21 21 22 20 19 17 17 15 11 7 5 7 8 14 12
5 9 8 10 9 1 11 14 24 25 22 22 23 21 19 17 20 21 21 21 20 19 18 18 15 9 7 3 3 5 14 14
10 9 7 8 7 6 5 14 19 25 22 21 18 17 18 21 18 19 21 19 19 18 18 18 13 9 7 8 6 8 10 10
7 10 9 11 8 10 8 4 14 14 18 20 17 17 15 16 18 19 19 19 18 18 17 18 15 10 8 4 6 8 9 10
8 9 9 7 4 6 4 3 6 10 15 15 13 12 11 10 10 10 11 16 11 13 14 12 13 10 8 7 9 7 8 9
8 8 6 7 5 3 5 5 3 6 10 12 12 8 10 12 9 11 11 10 13 12 9 10 12 11 7 10 9 7 9 9
9 8 7 7 9 7 5 6 4 7 5 6 9 6 10 11 11 11 10 10 10 11 10 10 10 10 9 9 8 8 12 9
9 8 7 6 6 8 7 6 8 8 7 6 7 8 7 10 11 12 11 11 11 11 9 10 9 10 10 9 9 9 9 13
9 9 7 8 10 8 5 6 10 11 11 10 12 7 5 9 10 12 11 11 14 10 11 10 10 10 10 9 8 9 7 10
11 9 8 9 9 8 5 2 11 10 10 9 15 11 8 7 8 8 9 8 8 9 10 10 10 9 9 9 8 8 9 7
13 12 11 8 11 8 8 6 8 10 8 8 13 13 10 5 7 7 9 7 7 7 8 8 8 9 9 9 8 7 8 8
11 10 12 7 7 7 7 6 8 8 8 9 13 10 9 5 7 7 7 6 5 7 8 8 8 8 9 8 7 7 7 6
12 11 13 9 8 9 8 8 9 8 6 8 15 13 14 9 7 7 6 6 7 6 7 8 7 7 7 7 6 6 7 8
12 11 14 11 9 7 9 9 8 8 4 4 9 15 15 12 10 9 10 6 9 9 8 8 8 7 7 8 7 7 9 10
15 13 14 12 11 7 7 8 7 7 6 5 6 7 12 12 9 8 10 8 6 9 10 11 8 8 9 6 6 7 10 10
15 16 17 15 17 14 16 14 14 14 12 8 7 10 12 11 8 4 9 8 11 11 10 8 7 8 6 9 8 7 3 5
14 16 17 17 15 14 14 15 11 9 12 14 13 13 14 10 13 14 8 8 9 8 9 9 7 7 6 7 9 8 8 6
13 14 15 17 16 16 18 18 16 11 13 13 12 11 11 16 17 13 11 7 12 8 10 11 8 7 7 8 8 8 9 8
15 17 17 16 15 17 18 19 18 19 18 14 14 13 10 15 16 14 13 14 13 12 10 10 9 9 9 7 9 9 9 7
18 18 18 17 16 17 15 17 11 14 16 13 12 13 14 14 15 15 17 16 12 15 10 11 10 9 11 9 8 10 8 8
Wind_Direction
247 200 139 91 333 326 219 159 149 150 148 145 141 142 142 145 143 131 125 121 127 124 122 118 120 122 113 58 354 310 113 108
208 146 166 149 172 255 318 273 151 148 145 144 139 145 141 140 138 130 130 127 127 130 124 119 124 118 94 121 266 305 119 122
161 162 178 174 168 123 246 277 161 145 142 137 138 150 152 147 139 133 127 132 128 123 122 119 120 121 171 200 246 121 126 107
151 168 175 179 194 169 197 263 168 151 150 154 163 150 155 157 139 129 128 127 125 124 124 124 158 156 168 224 218 126 112 112
159 183 169 171 173 180 194 300 151 150 151 168 156 162 157 129 144 135 135 136 138 140 143 158 150 165 168 182 118 161 120 114
161 165 183 180 154 119 126 130 66 139 157 178 143 153 169 140 155 155 153 164 150 151 175 153 162 164 167 128 169 141 125 120
196 170 171 184 183 165 134 134 185 121 139 121 151 164 167 159 162 163 160 155 174 173 184 152 164 161 147 160 158 128 129 129
151 156 165 159 169 173 163 156 170 155 162 144 195 156 173 169 161 165 175 160 177 187 159 156 175 162 163 157 147 145 152 145
170 158 157 165 162 151 141 165 170 163 159 163 187 161 195 179 164 165 182 161 182 184 160 172 181 172 160 162 154 159 142 146
162 167 177 178 154 157 143 108 164 147 150 158 192 157 204 181 166 170 175 169 173 169 181 180 179 177 162 170 169 171 158 163
160 169 174 167 151 149 137 119 126 128 140 168 185 169 189 199 152 181 182 151 181 168 189 180 179 184 168 179 176 174 172 174
167 167 162 139 130 127 133 124 119 139 174 187 167 162 160 175 140 157 170 176 156 189 186 192 179 188 178 178 184 184 179 179
174 170 156 150 163 149 154 148 147 153 182 199 167 161 175 173 160 165 202 183 173 191 187 190 185 190 184 176 191 200 204 200
168 170 163 162 170 173 155 150 155 154 156 231 200 169 184 175 180 170 214 187 190 183 189 186 189 188 198 190 197 200 210 219
177 168 165 158 167 156 144 137 142 162 177 209 210 222 209 182 184 183 192 218 183 184 201 197 191 181 230 251 218 225 191 191
187 174 176 177 174 173 172 173 172 186 186 180 205 224 219 195 161 197 211 219 187 195 191 203 214 191 199 252 283 297 314 164
196 173 180 186 182 177 179 184 189 175 188 189 189 206 221 219 179 198 227 209 212 184 193 205 213 226 212 211 232 245 253 253
186 177 185 180 181 181 185 191 188 183 187 191 194 201 202 206 211 190 192 214 218 195 193 203 209 218 216 234 234 229 227 226
182 185 183 181 187 185 192 192 192 195 187 191 192 204 208 208 201 192 191 193 221 211 191 204 208 220 224 230 246 244 245 252
186 186 189 182 185 190 189 199 202 196 195 195 202 204 209 205 205 206 201 198 193 226 205 213 209 214 239 239 239 244 243 249